ATLAS 5 CENTAUR DEB, 45473

Orbit data source: Space-Track

ATLAS 5 CENTAUR DEB, 45473 is space debris in HEO originally from a launch on Wed, 17 Oct 2018 UTC launched from the Air Force Eastern Test Range (AFETR). Debris objects in space refer to the collection of defunct objects orbiting the Earth. Examples of debris include non-operational satellites, rocket bodies, and fragments generated from explosions, collisions, or faulty payload assembly.

Loading next visibility...
Identifier
45473, 2018-079BV
Orbit
HEO
Country
Flag of USUS
Related business
Flag of USUnited Launch Alliance/Lockheed Martin (US)
Manufacturer
ULA Decatur
Mission
Spacecraft
Bus & Motor
Unknown
Mass
Unknown
Launch date (UTC)
2018-10-17 (7 years ago)
Launch vehicle
Unknown
Launch site
Air Force Eastern Test Range (AFETR)
Object type
Payload
Rocket body
Debris
Shape & HBR
Unknown shape, 1.1 m
Radar Cross Section
RCS unknown

Expand to show TLE details & history
Last TLE update: 2 days ago

TLE from 2 days ago
0 ATLAS 5 CENTAUR DEB
1 45473U 18079BV  25285.98729219 -.00000063  00000-0  00000-0 0  9997
2 45473  12.4319  86.1170 4577253 207.0463 119.1560  1.70631190 37497
Epoch: 2025-10-12T23:41Z
TLE epoch observation values (Epoch: 2025-10-12T23:41:42.045Z)
Latitude
0.00001°
Longitude
68.88347°
Altitude
33,080.943 km
Speed
2.594 km/s
True Right ascension
05h 44m 25s
True Declination
0° 00' 00"
Sunlit
Object was in daylight at epoch
Visualization orbit readout
Latitude
Unknown
Longitude
Unknown
Altitude
Unknown
Speed
Unknown
Apparent Right ascension
Unknown
Apparent Declination
Unknown
Sunlit
N/A
Visualization observer readout
Local Sidereal Time
09:04:32
Azimuth
Unknown
Elevation
Unknown
Doppler factor
Unknown
Orbital elements
Apogee altitude
36,747.394 km
Perigee altitude
9,664.587 km
Semi-major axis
29,584.127 km
Eccentricity
0.45773
Inclination
12.4319°
RAAN
86.117°
Arg. of periapsis
207.0463°
True anomaly
153.002°
Mean anomaly
119.156°
Eccentric anomaly
137.03139°
Mean motion
0.42654 °/min
Orbital period
844.01 mins
BSTAR
0
Loading maneuver chart data...
Computing Atmospheric mass density...

Documentation

Showing up to 5 results
|